TimeCDT,TemperatureF,Dew PointF,Humidity,Sea Level PressureIn,VisibilityMPH,Wind Direction,Wind SpeedMPH,Gust SpeedMPH,PrecipitationIn,Events,Conditions,WindDirDegrees,DateUTC
12:15 AM,64.4,55.4,73,29.72,10.0,SE,4.6,-,N/A,,Clear,130,2013-03-17 05:15:00
12:35 AM,62.6,55.4,77,29.72,10.0,SE,5.8,-,N/A,,Clear,130,2013-03-17 05:35:00
12:55 AM,62.6,53.6,72,29.71,10.0,ESE,5.8,-,N/A,,Clear,110,2013-03-17 05:55:00
1:15 AM,62.6,53.6,72,29.71,10.0,ESE,5.8,-,N/A,,Clear,120,2013-03-17 06:15:00
1:35 AM,62.6,53.6,72,29.72,10.0,ESE,5.8,-,N/A,,Clear,120,2013-03-17 06:35:00
1:55 AM,62.6,53.6,72,29.72,10.0,Calm,Calm,-,N/A,,Clear,0,2013-03-17 06:55:00
2:15 AM,60.8,51.8,72,29.73,10.0,NNW,15.0,-,N/A,,Clear,340,2013-03-17 07:15:00
2:35 AM,55.4,48.2,77,29.74,10.0,North,10.4,-,N/A,,Clear,360,2013-03-17 07:35:00
2:55 AM,55.4,46.4,72,29.74,10.0,North,15.0,-,N/A,,Scattered Clouds,350,2013-03-17 07:55:00
3:15 AM,55.4,46.4,72,29.74,10.0,North,15.0,20.7,N/A,,Overcast,360,2013-03-17 08:15:00
3:55 AM,53.6,44.6,72,29.75,10.0,North,11.5,-,N/A,,Overcast,360,2013-03-17 08:55:00
4:15 AM,53.6,44.6,72,29.75,10.0,North,13.8,17.3,N/A,,Mostly Cloudy,10,2013-03-17 09:15:00
4:35 AM,53.6,42.8,67,29.75,10.0,North,17.3,-,N/A,,Overcast,360,2013-03-17 09:35:00
4:55 AM,53.6,42.8,67,29.75,10.0,North,17.3,-,N/A,,Mostly Cloudy,360,2013-03-17 09:55:00
5:15 AM,51.8,42.8,71,29.75,10.0,North,16.1,21.9,N/A,,Overcast,10,2013-03-17 10:15:00
5:35 AM,51.8,42.8,71,29.75,10.0,North,16.1,23.0,N/A,,Overcast,10,2013-03-17 10:35:00
5:55 AM,51.8,41.0,67,29.75,10.0,North,13.8,19.6,N/A,,Overcast,10,2013-03-17 10:55:00
6:15 AM,50.0,41.0,71,29.77,10.0,North,12.7,-,N/A,,Overcast,10,2013-03-17 11:15:00
6:35 AM,50.0,41.0,71,29.77,10.0,North,15.0,18.4,N/A,,Overcast,360,2013-03-17 11:35:00
11:35 PM,44.6,42.8,93,29.67,7.0,South,4.6,-,N/A,,Clear,170,2013-03-18 04:35:00
11:55 PM,44.6,42.8,93,29.67,7.0,ESE,4.6,-,N/A,,Clear,120,2013-03-18 04:55:00